Weather History for PABE - January, 2013

Change the Weather History Date:

Saturday, January 12, 2013

  Actual Average Record
Temperature  
Mean Temperature 32 °F -  
Max Temperature 38 °F 12 °F 45 °F (1930)
Min Temperature 26 °F - -40 °F (1934)
Degree Days  
Heating Degree Days 33 59  
Month to date heating degree days 476 703  
Since 1 July heating degree days 6429 6127  
Cooling Degree Days 0    
Month to date cooling degree days 0  
Year to date cooling degree days 0  
Moisture  
Dew Point 30 °F    
Average Humidity 0    
Maximum Humidity 0    
Minimum Humidity 0    
Precipitation  
Precipitation 0.28 in 0.02 in 0.70 in (1932)
Month to date precipitation 0.85 0.34  
Year to date precipitation 0.85 0.34  
Snow  
Snow 1.00 in 0.30 in 3.70 in (1994)
Month to date snowfall 9.6 4.1  
Since 1 July snowfall 22.3 33.4  
Snow Depth 16.00 in    
Sea Level Pressure  
Sea Level Pressure 29.46 in    
Wind  
Wind Speed 0 mph (ESE)    
Max Wind Speed 33 mph    
Max Gust Speed 39 mph    
Visibility 7 miles    
Events Fog , Rain , Snow    
T = Trace of Precipitation, MM = Missing Value Source: NWS Daily Summary

Daily Weather History Graph

Daily Weather History Graph

Search for Another Location

Airport or City:

Trip Planner

Search our weather history database for the weather conditions in past years. The results will help you decide how hot, cold, wet, or windy it might be!

Date:

Astronomy

Jan. 12, 2013 Rise Set
Actual Time 10:44 AM AKST 5:07 PM AKST
Civil Twilight 9:49 AM AKST 6:03 PM AKST
Nautical Twilight 8:53 AM AKST 6:59 PM AKST
Astronomical Twilight 8:01 AM AKST 7:50 PM AKST
Moon 10:35 AM AKST (1/12) 7:33 PM AKST (1/12)
Length of Visible Light 8h 13m
Length of Day
6h 22m
New Moon, 2% of the Moon is Illuminated
Jan 12
New Moon
Jan 18
First Quarter
Jan 26
Full
Feb 3
Last Quarter
Feb 9
New

Hourly Weather History & Observations

Time (AKST) Temp. Windchill Dew Point Humidity Pressure Visibility Wind Dir Wind Speed Gust Speed Precip Events Conditions
12:24 AM 26.6 °F 15.7 °F 21.2 °F 80% 29.77 in 2.5 mi SE 12.7 mph 17.3 mph 0.00 in Snow Light Snow
12:30 AM 26.6 °F 16.8 °F 23.0 °F 86% 29.77 in 0.8 mi SE 10.4 mph 17.3 mph 0.01 in Snow Light Snow
12:40 AM 26.6 °F 19.1 °F 24.8 °F 93% 29.76 in 0.5 mi ESE 6.9 mph - 0.02 in Fog , Snow Snow
12:51 AM 26.6 °F 20.0 °F 24.8 °F 93% 29.76 in 0.8 mi ESE 5.8 mph - 0.03 in Snow Light Snow
12:53 AM 26.1 °F 19.4 °F 25.0 °F 96% 29.77 in 0.8 mi East 5.8 mph - 0.03 in Snow Light Snow
1:30 AM 28.4 °F 19.7 °F 28.4 °F 100% 29.72 in 1.0 mi East 9.2 mph - 0.05 in Snow Light Snow
1:51 AM 28.4 °F 18.5 °F 28.4 °F 100% 29.71 in 1.5 mi East 11.5 mph - 0.05 in Snow Light Snow
1:53 AM 28.9 °F 19.2 °F 28.0 °F 96% 29.71 in 1.5 mi ENE 11.5 mph - 0.05 in Snow Light Snow
2:10 AM 28.4 °F 17.5 °F 28.4 °F 100% 29.68 in 2.0 mi ENE 13.8 mph - 0.01 in Snow Light Snow
2:16 AM 28.4 °F 17.5 °F 26.6 °F 93% 29.68 in 3.0 mi ENE 13.8 mph - 0.01 in Snow Light Snow
2:36 AM 28.4 °F 18.0 °F 26.6 °F 93% 29.65 in 7.0 mi ENE 12.7 mph - 0.01 in Snow Light Snow
2:53 AM 28.9 °F 17.7 °F 27.0 °F 92% 29.65 in 10.0 mi ENE 15.0 mph - 0.01 in   Overcast
3:39 AM 28.4 °F 16.2 °F 26.6 °F 93% 29.62 in 10.0 mi ENE 17.3 mph - N/A   Overcast
3:53 AM 28.9 °F 16.9 °F 27.0 °F 92% 29.61 in 10.0 mi ENE 17.3 mph - N/A   Overcast
4:53 AM 30.0 °F 17.9 °F 26.1 °F 85% 29.54 in 10.0 mi ENE 18.4 mph - N/A   Overcast
5:53 AM 30.0 °F 20.0 °F 25.0 °F 82% 29.50 in 10.0 mi ENE 12.7 mph - N/A   Overcast
6:53 AM 30.0 °F 21.1 °F 26.1 °F 85% 29.47 in 10.0 mi ENE 10.4 mph - N/A   Overcast
7:53 AM 32.0 °F 22.5 °F 27.0 °F 82% 29.44 in 10.0 mi East 12.7 mph - N/A   Overcast
8:53 AM 33.1 °F 25.5 °F 28.0 °F 82% 29.41 in 10.0 mi East 9.2 mph - N/A   Overcast
9:53 AM 37.0 °F 27.7 °F 30.0 °F 76% 29.39 in 10.0 mi ESE 16.1 mph - N/A   Overcast
10:53 AM 37.0 °F 28.9 °F 30.9 °F 79% 29.38 in 10.0 mi ESE 12.7 mph - N/A   Overcast
11:53 AM 37.0 °F 26.7 °F 32.0 °F 82% 29.36 in 7.0 mi ESE 19.6 mph 29.9 mph 0.01 in Rain Light Rain
12:53 PM 36.0 °F 25.6 °F 32.0 °F 86% 29.32 in 9.0 mi ESE 18.4 mph - 0.03 in Rain Light Rain
1:53 PM 36.0 °F 27.1 °F 33.1 °F 89% 29.30 in 4.0 mi ESE 13.8 mph - 0.04 in Rain Rain
2:53 PM 36.0 °F 26.3 °F 33.1 °F 89% 29.25 in 7.0 mi East 16.1 mph - 0.05 in Rain Light Rain
3:53 PM 36.0 °F 27.1 °F 33.1 °F 89% 29.23 in 5.0 mi ESE 13.8 mph - 0.04 in Rain Light Rain
4:51 PM 35.6 °F 27.5 °F 33.8 °F 93% 29.20 in 3.0 mi ESE 11.5 mph - 0.01 in Rain Light Rain
4:53 PM 36.0 °F 27.1 °F 34.0 °F 93% 29.21 in 3.0 mi ESE 13.8 mph - 0.01 in Rain Light Rain
5:53 PM 37.0 °F 27.7 °F 34.0 °F 89% 29.20 in 10.0 mi SSE 16.1 mph - 0.01 in   Overcast
6:53 PM 37.0 °F 26.7 °F 34.0 °F 89% 29.20 in 10.0 mi SSE 19.6 mph - 0.00 in   Overcast
7:53 PM 37.9 °F 25.7 °F 35.1 °F 89% 29.21 in 10.0 mi South 29.9 mph 38.0 mph 0.00 in   Overcast
8:53 PM 37.0 °F 25.1 °F 34.0 °F 89% 29.24 in 10.0 mi South 26.5 mph 38.0 mph N/A   Overcast
9:53 PM 37.0 °F 24.3 °F 35.1 °F 93% 29.26 in 7.0 mi South 31.1 mph 39.1 mph N/A   Overcast
10:53 PM 36.0 °F 23.9 °F 34.0 °F 93% 29.28 in 10.0 mi SSE 25.3 mph 33.4 mph 0.00 in   Overcast
11:53 PM 37.0 °F 25.1 °F 36.0 °F 96% 29.29 in 7.0 mi SSE 26.5 mph - 0.00 in Snow Light Snow